Terug naar catalogus

SL-16 DEB

ActiefLEO
NORAD 23282·DEBRIS·🇷🇺 Russia

Gelanceerd Dec 25, 1992 vanaf Baikonur Cosmodrome

Loading…

Volgende Passages (komende 24 uur)

TLE

VersSource: Space-Track

Epoch: Sep 14, 2026, 11:03 UTC

1 23282U 92093JG  26257.46107433  .00008141  00000-0  13931-2 0  9993
2 23282  71.1685 252.3654 0037437 158.6707   1.5064 14.68628046687633

Volg SL-16 DEB in realtime met AllMySat

Download on the App Store